FW0916 Weather Reports


Display with metric or nautical units.
time (UTC)temp
F
wind
direction
speed
MPH
gust
MPH
rain 1hr
in
rain 24hr
in
rain mn
in
humidity
%
barometer
mb
20260505060100 43 243 2.0 7.0 0.00 0.13 0.00 83 1007.9
20260505054551 43 238 1.0 7.0 0.00 0.13 0.00 83 1007.4
20260505053045 43 235 4.0 10.0 0.00 0.13 0.00 83 1007.1
20260505051542 43 235 4.0 11.0 0.00 0.13 0.00 82 1006.8
20260505041536 45 229 7.0 13.0 0.00 0.17 0.00 79 1006.0
20260505040027 45 206 5.0 12.0 0.00 0.17 0.00 78 1005.8
20260505034524 46 234 5.0 12.0 0.00 0.17 0.00 77 1005.7
20260505033022 46 252 5.0 14.0 0.00 0.17 0.00 76 1005.5
20260505031519 46 235 5.0 16.0 0.00 0.17 0.00 76 1005.2
20260505030015 47 224 7.0 13.0 0.00 0.17 0.00 75 1004.8
20260505024514 46 226 5.0 11.0 0.00 0.17 0.17 75 1004.7
20260505023013 47 228 6.0 12.0 0.00 0.17 0.17 74 1004.6
20260505021512 46 215 4.0 13.0 0.00 0.17 0.17 74 1004.5
20260505020010 46 213 6.0 17.0 0.00 0.17 0.17 73 1004.3
20260505014518 45 246 6.0 11.0 0.00 0.18 0.17 74 1004.2
20260505013009 45 255 5.0 14.0 0.00 0.18 0.17 74 1004.3
20260505011507 46 242 7.0 12.0 0.00 0.18 0.17 73 1004.1
20260505010007 48 225 7.0 13.0 0.00 0.18 0.17 71 1004.0
20260505004508 50 227 6.0 12.0 0.00 0.24 0.17 69 1003.9
20260505003006 50 250 7.0 17.0 0.00 0.24 0.17 68 1003.9
20260505001504 50 238 7.0 14.0 0.00 0.24 0.17 64 1003.6
20260505000007 47 263 8.0 14.0 0.00 0.38 0.17 66 1003.5
20260504234501 45 215 4.0 8.0 0.00 0.38 0.17 70 1003.0
20260504233102 45 219 4.0 11.0 0.00 0.38 0.17 70 1002.8
20260504231557 46 232 4.0 13.0 0.00 0.38 0.17 69 1002.7
20260504230055 47 213 6.0 11.0 0.00 0.38 0.17 67 1002.5
20260504224554 48 247 5.0 17.0 0.00 0.57 0.17 65 1002.3
20260504223109 49 241 6.0 13.0 0.00 0.57 0.17 64 1002.4
20260504221552 50 271 6.0 13.0 0.00 0.57 0.17 62 1002.0
20260504220050 51 232 6.0 15.0 0.00 0.57 0.17 61 1002.0
20260504214549 52 211 4.0 14.0 0.00 0.73 0.17 60 1001.8
20260504213048 53 215 5.0 16.0 0.00 0.73 0.17 57 1001.6
20260504211626 53 270 7.0 14.0 0.00 0.73 0.17 55 1001.6
20260504210050 53 261 9.0 16.0 0.00 0.73 0.17 55 1001.4
20260504204544 53 256 5.0 20.0 0.00 0.81 0.17 57 1001.4
20260504203044 53 256 8.0 15.0 0.00 0.81 0.17 56 1001.1
20260504201540 53 254 10.0 24.0 0.00 0.81 0.17 58 1000.7
20260504200038 53 257 9.0 23.0 0.00 0.81 0.17 58 1000.6
20260504194539 53 287 6.0 25.0 0.00 0.82 0.17 62 1000.2
20260504193035 53 263 9.0 17.0 0.00 0.82 0.17 64 999.9
20260504191535 53 250 9.0 22.0 0.00 0.82 0.17 67 999.5
20260504190029 52 233 7.0 24.0 0.00 0.82 0.17 70 999.2
20260504184541 52 257 10.0 31.0 0.00 0.84 0.17 69 999.0
20260504183023 51 272 5.0 20.0 0.00 0.84 0.17 75 998.8
20260504181521 51 338 7.0 20.0 0.00 0.84 0.17 77 998.9
20260504180017 48 234 6.0 20.0 0.00 0.84 0.17 81 998.5
20260504174514 46 261 7.0 21.0 0.00 0.84 0.17 81 998.4
20260504173011 46 246 6.0 22.0 0.00 0.84 0.17 83 998.1
20260504171508 46 257 8.0 23.0 0.00 0.84 0.17 84 997.8
20260504081543 37 224 10.0 20.0 0.01 0.77 0.09 92 978.5